This demonstration page uses our WeatherBlox Daily Observations layout. Learn more.

38.89511, -77.03637

Hourly Observations for October 16, 2018

Temp ( °F °C ) Dew Point ( °F °C ) Humidity (%) Winds ( mph kmh ) Pressure ( in mb ) Visibility ( mi km ) Precip ( " mm )
12:02 am 00:02 Cloudy 70 21.1 59 15 68 68 NNW 21 33 30.03 1017 10 16.0934 0 0
12:52 am 00:52 Cloudy 67 19.4 53 11.7 61 61 NNW 12 19 30.05 1018 10 16.0934 0 0
1:52 am 01:52 Cloudy 65 18.3 52 11.1 63 63 N 12 19 30.09 1019 10 16.0934 0 0
2:52 am 02:52 Cloudy 63 17.2 48 8.9 58 58 NNW 12 19 30.1 1019 10 16.0934 0 0
3:52 am 03:52 Mostly Cloudy 61 16.1 45 7.2 56 56 NNW 14 22 30.13 1020 10 16.0934 0 0
4:52 am 04:52 Cloudy 60 15.6 43 6.1 53 53 NNW 22 35 30.13 1020 10 16.0934 0 0
5:52 am 05:52 Mostly Cloudy 58 14.4 41 5 53 53 NNW 23 37 30.14 1021 10 16.0934 0 0
6:52 am 06:52 Mostly Cloudy 56 13.3 41 5 57 57 NNW 13 20 30.18 1022 10 16.0934 0 0
7:52 am 07:52 Mostly Cloudy 56 13.3 40 4.4 55 55 NNW 14 22 30.2 1023 10 16.0934 0 0
8:52 am 08:52 Mostly Cloudy 56 13.3 39 3.9 53 53 N 13 20 30.22 1024 10 16.0934 0 0
9:52 am 09:52 Cloudy 56 13.3 41 5 57 57 NW 13 20 30.23 1024 10 16.0934 0 0
10:52 am 10:52 Mostly Cloudy 59 15 40 4.4 49 49 N 15 24 30.23 1024 10 16.0934 0 0
11:52 am 11:52 Mostly Cloudy 60 15.6 39 3.9 46 46 N 8 13 30.23 1024 10 16.0934 0 0
12:52 pm 12:52 Cloudy 59 15 38 3.3 46 46 NNW 9 15 30.21 1023 10 16.0934 0 0
1:52 pm 13:52 Mostly Cloudy 61 16.1 39 3.9 44 44 N 8 13 30.17 1022 10 16.0934 0 0
2:52 pm 14:52 Mostly Cloudy 62 16.7 38 3.3 41 41 NW 8 13 30.15 1021 10 16.0934 0 0
3:52 pm 15:52 Cloudy 60 15.6 39 3.9 46 46 NNW 6 9 30.13 1020 10 16.0934 0 0
4:52 pm 16:52 Mostly Cloudy 61 16.1 39 3.9 44 44 Calm 30.13 1020 10 16.0934 0 0
5:52 pm 17:52 Cloudy 60 15.6 40 4.4 47 47 ENE 3 6 30.12 1020 10 16.0934 0 0
6:52 pm 18:52 Cloudy 59 15 40 4.4 49 49 SSW 7 11 30.13 1020 10 16.0934 0 0
7:52 pm 19:52 Cloudy 58 14.4 46 7.8 65 65 SW 6 9 30.13 1020 10 16.0934 0 0
8:52 pm 20:52 Cloudy 57 13.9 48 8.9 72 72 S 6 9 30.13 1020 10 16.0934 0 0
9:52 pm 21:52 Cloudy 57 13.9 48 8.9 72 72 SW 7 11 30.13 1020 10 16.0934 0 0
10:27 pm 22:27 Cloudy 57 13.9 47 8.3 69 69 SSW 5 7 30.12 1020 10 16.0934 0 0
10:38 pm 22:38 Cloudy 57 13.9 48 8.9 72 72 SSW 5 7 30.12 1020 10 16.0934 0 0
10:52 pm 22:52 Cloudy 58 14.4 48 8.9 70 70 SW 3 6 30.12 1020 10 16.0934 0 0
11:52 pm 23:52 Cloudy 57 13.9 48 8.9 72 72 SW 5 7 30.11 1020 10 16.0934 0 0

Powered by AerisWeather